Alexandria, MN

7:54 AM CDT on September 24, 2017 (GMT -0500)
Chandler

Weather History for KAXN - January, 2013

Change the Weather History Date:

Monday, January 7, 2013

  Actual Average Record
Temperature  
Mean Temperature 26 °F -  
Max Temperature 35 °F 12 °F 42 °F (2003)
Min Temperature 16 °F -6 °F -28 °F (1966)
Degree Days  
Heating Degree Days 40    
Moisture  
Dew Point 18 °F    
Average Humidity 77    
Maximum Humidity 92    
Minimum Humidity 61    
Precipitation  
Precipitation 0.00 in - - ()
Sea Level Pressure  
Sea Level Pressure 29.92 in    
Wind  
Wind Speed 12 mph (SW)    
Max Wind Speed 15 mph    
Max Gust Speed -    
Visibility 10 miles    
Events      
Averages and records for this station are not official NWS values.
T = Trace of Precipitation, MM = Missing Value Source: NWS Daily Summary

Daily Weather History Graph

Daily Weather History Graph

Search for Another Location

Airport or City:

Trip Planner

Search our weather history database for the weather conditions in past years. The results will help you decide how hot, cold, wet, or windy it might be!

Date:

Astronomy

Jan. 07, 2013 Rise Set
Actual Time 8:02 AM CST 4:54 PM CST
Civil Twilight 7:28 AM CST 5:27 PM CST
Nautical Twilight 6:50 AM CST 6:05 PM CST
Astronomical Twilight 6:14 AM CST 6:41 PM CST
Moon 3:23 AM CST (1/7) 1:08 PM CST (1/7)
Length of Visible Light 9h 59m
Length of Day
8h 51m
Waning Crescent, 22% of the Moon is Illuminated
Jan 7
Waning Crescent
Jan 11
New
Jan 18
First Quarter
Jan 26
Full
Feb 3
Last Quarter

Hourly Weather History & Observations

Time (CST) Temp. Windchill Dew Point Humidity Pressure Visibility Wind Dir Wind Speed Gust Speed Precip Events Conditions
12:53 AM 21.9 °F 9.2 °F 15.1 °F 75% 29.87 in 10.0 mi South 13.8 mph - N/A   Clear
1:53 AM 21.0 °F 8.1 °F 15.1 °F 78% 29.86 in 10.0 mi SSW 13.8 mph - N/A   Clear
2:53 AM 21.9 °F 10.4 °F 16.0 °F 78% 29.86 in 10.0 mi SSW 11.5 mph - N/A   Clear
3:53 AM 21.9 °F 8.7 °F 17.1 °F 82% 29.86 in 10.0 mi SW 15.0 mph - N/A   Clear
4:53 AM 21.0 °F 8.6 °F 16.0 °F 81% 29.86 in 10.0 mi SW 12.7 mph - N/A   Clear
5:53 AM 21.0 °F 9.3 °F 16.0 °F 81% 29.87 in 10.0 mi SW 11.5 mph - N/A   Clear
6:53 AM 23.0 °F 11.7 °F 18.0 °F 81% 29.87 in 10.0 mi SW 11.5 mph - N/A   Mostly Cloudy
7:53 AM 23.0 °F 12.4 °F 17.1 °F 78% 29.89 in 10.0 mi WSW 10.4 mph - N/A   Clear
8:53 AM 24.1 °F 13.7 °F 17.1 °F 75% 29.90 in 10.0 mi WSW 10.4 mph - N/A   Clear
9:53 AM 28.9 °F 19.2 °F 19.9 °F 69% 29.92 in 10.0 mi West 11.5 mph - N/A   Clear
10:53 AM 30.9 °F 20.7 °F 21.9 °F 69% 29.93 in 10.0 mi West 13.8 mph - N/A   Clear
11:53 AM 33.1 °F 23.4 °F 23.0 °F 66% 29.90 in 10.0 mi West 13.8 mph - N/A   Clear
12:53 PM 35.1 °F 25.5 °F 23.0 °F 61% 29.89 in 10.0 mi West 15.0 mph - N/A   Clear
1:53 PM 34.0 °F 25.0 °F 23.0 °F 64% 29.89 in 10.0 mi West 12.7 mph - N/A   Clear
2:53 PM 34.0 °F 24.6 °F 23.0 °F 64% 29.91 in 10.0 mi West 13.8 mph - N/A   Clear
3:53 PM 32.0 °F 23.0 °F 23.0 °F 69% 29.93 in 10.0 mi West 11.5 mph - N/A   Clear
4:53 PM 28.0 °F 20.8 °F 21.0 °F 75% 29.95 in 10.0 mi WSW 6.9 mph - N/A   Clear
5:53 PM 27.0 °F 20.5 °F 19.9 °F 75% 29.95 in 10.0 mi WSW 5.8 mph - N/A   Clear
6:53 PM 21.0 °F 10.6 °F 17.1 °F 85% 29.97 in 10.0 mi SW 9.2 mph - N/A   Clear
7:53 PM 21.0 °F 11.4 °F 17.1 °F 85% 29.96 in 10.0 mi SW 8.1 mph - N/A   Clear
8:53 PM 19.0 °F 10.0 °F 16.0 °F 88% 29.98 in 10.0 mi WSW 6.9 mph - N/A   Clear
9:53 PM 16.0 °F 4.4 °F 14.0 °F 92% 29.98 in 10.0 mi SW 9.2 mph - N/A   Clear
10:53 PM 16.0 °F 7.4 °F 12.9 °F 88% 29.99 in 10.0 mi SW 5.8 mph - N/A   Clear
11:53 PM 17.1 °F 10.0 °F 12.9 °F 84% 29.98 in 10.0 mi SSW 4.6 mph - N/A   Clear